Weather in Jamaica

United States     40°42′14″N   73°48′51″W
temp.,
°C
wind,
m/s
gust,
m/s
humid.,
%
clouds,
%
prec.,
mm/h
press.,
hPa
HPBL,
m
18 may, tue
tue1823:00+18sw36473 0.0 1026284
02:00+17wsw25584 0.0 1026143
05:00+16wsw2466100 0.1 1026100
08:00+18w4652100 0.1 1027297
11:00+24wsw45325 0.0 10271462
14:00+25wsw5628100 0.0 10252174
17:00+23wsw363875 0.0 1024628
20:00+23w484314 0.0 1024603
19 may, wed
wed1923:00+20wnw495616 0.0 1025384
02:00+19wnw26625 0.0 1025154
05:00+17w376490 0.0 1025185
08:00+20nw46565 0.0 1026297
11:00+25n24370 0.0 10261068
14:00+29nne463127 0.0 10252308
17:00+28n463391 0.0 10242028
20:00+24e225298 0.2 1025288
20 may, thu
thu2023:00+21e35636 0.3 1026182
02:00+18ese346669 0.3 1027237
05:00+17ese236696 0.0 1028205
08:00+19e334721 0.0 1031423
11:00+22ese333412 0.0 1031851
14:00+23se4331100 0.0 1031959
17:00+22sse433554 0.0 1031718
20:00+18s454495 0.0 1031333
21 may, fri
fri2123:00+16s34605 0.0 1032276
02:00+15s2366100 0.0 1032209
05:00+15s126756 0.0 1032133
08:00+17sw2358100 0.0 1032327
11:00+21sw3339100 0.0 1031541
14:00+23sw3440100 0.0 1030622
17:00+19s3354100 0.0 1029208
20:00+18s2364100 0.1 1029167
22 may, sat
sat2223:00+17ssw3469100 0.1 1028198
02:00+16sw2483100 0.9 1026174
05:00+16sw2487100 0.6 1024171
08:00+16sw3790100 1.7 1024228
11:00+17ssw3786100 0.3 1022248
14:00+21ssw4562100 0.3 1019449
17:00+21s3561100 0.1 1017284
20:00+19sse2381100 0.6 101690